EW1587 Weather Reports


time (UTC)temp
F
wind
direction
speed
knots
gust
knots
rain 1hr
in
rain 24hr
in
rain mn
in
humidity
%
barometer
mb
20260504221004 51 30 4.3 16.5 0.00 0.00 0.00 43 1003.0
20260504220505 51 311 7.8 16.5 0.00 0.00 0.00 42 1003.0
20260504220003 51 253 5.2 20.9 0.00 0.00 0.00 43 1003.0
20260504215503 52 343 7.0 18.2 0.00 0.00 0.00 40 1003.0
20260504215003 51 4 5.2 14.8 0.00 0.00 0.00 42 1002.9
20260504214502 51 349 4.3 14.8 0.00 0.00 0.00 42 1002.8
20260504214001 52 25 6.1 14.8 0.00 0.00 0.00 42 1002.9
20260504213601 52 318 5.2 17.4 0.00 0.00 0.00 44 1002.7
20260504213126 52 255 5.2 19.1 0.00 0.00 0.00 43 1002.7
20260504212602 52 341 7.8 19.1 0.00 0.00 0.00 43 1002.6
20260504212059 52 345 7.0 17.4 0.00 0.00 0.00 44 1002.5
20260504211557 52 315 6.1 19.1 0.00 0.00 0.00 45 1002.5
20260504211056 52 335 7.8 19.1 0.00 0.00 0.00 44 1002.5
20260504210556 52 357 8.7 15.6 0.00 0.00 0.00 44 1002.3
20260504210100 53 337 7.8 16.5 0.00 0.00 0.00 43 1002.3
20260504205553 53 309 7.0 16.5 0.00 0.00 0.00 45 1002.3
20260504205054 53 297 6.1 15.6 0.00 0.00 0.00 42 1002.2
20260504204603 54 355 7.0 17.4 0.00 0.00 0.00 43 1002.1
20260504204052 53 292 7.0 17.4 0.00 0.00 0.00 44 1002.0
20260504203554 53 267 9.6 17.4 0.00 0.00 0.00 43 1002.0
20260504203052 53 350 6.1 15.6 0.00 0.00 0.00 45 1001.9
20260504202552 53 345 6.1 15.6 0.00 0.00 0.00 45 1002.0
20260504202052 53 332 4.3 15.6 0.00 0.00 0.00 45 1001.9
20260504201550 53 334 8.7 14.8 0.00 0.00 0.00 44 1001.9
20260504201049 54 343 6.1 14.8 0.00 0.00 0.00 43 1001.8
20260504200551 54 25 6.1 13.9 0.00 0.00 0.00 43 1001.8
20260504200053 54 318 6.1 15.6 0.00 0.00 0.00 45 1001.7
20260504195548 54 292 7.8 17.4 0.00 0.00 0.00 44 1001.6
20260504195048 54 314 8.7 18.2 0.00 0.00 0.00 42 1001.6
20260504194547 54 338 8.7 18.2 0.00 0.00 0.00 42 1001.5
20260504194046 55 20 7.0 19.1 0.00 0.00 0.00 43 1001.5
20260504193548 54 307 7.8 20.0 0.00 0.00 0.00 44 1001.5
20260504193045 54 312 7.8 19.1 0.00 0.00 0.00 42 1001.3
20260504192545 55 345 7.0 17.4 0.00 0.00 0.00 43 1001.3
20260504192044 55 311 7.0 17.4 0.00 0.00 0.00 43 1001.3
20260504191543 55 5 3.5 22.6 0.00 0.00 0.00 44 1001.1
20260504191043 55 300 8.7 22.6 0.00 0.00 0.00 43 1000.9
20260504190542 55 14 7.0 18.2 0.00 0.00 0.00 43 1000.8
20260504190041 56 347 7.0 22.6 0.00 0.00 0.00 44 1000.9
20260504185541 55 333 7.8 22.6 0.00 0.00 0.00 44 1000.8
20260504185041 55 325 8.7 20.9 0.00 0.00 0.00 43 1000.8
20260504184539 55 354 7.8 15.6 0.00 0.00 0.00 43 1000.6
20260504184039 56 4 5.2 15.6 0.00 0.00 0.00 44 1000.6
20260504183539 56 314 6.1 21.7 0.00 0.00 0.00 46 1000.4
20260504183038 55 278 7.0 21.7 0.00 0.00 0.00 44 1000.5
20260504182538 56 314 9.6 18.2 0.00 0.00 0.00 45 1000.3
20260504182037 55 311 7.8 18.2 0.00 0.00 0.00 46 1000.3
20260504181542 56 313 8.7 16.5 0.00 0.00 0.00 45 1000.3
20260504181037 56 297 7.0 18.2 0.00 0.00 0.00 45 1000.1
20260504180540 56 349 7.0 18.2 0.00 0.00 0.00 45 1000.0
20260504180036 57 355 7.8 14.8 0.00 0.00 0.00 47 1000.0
20260504175539 56 295 4.3 16.5 0.00 0.00 0.00 48 1000.0
20260504175038 56 9 6.1 16.5 0.00 0.00 0.00 46 1000.0
20260504174536 56 349 6.1 12.2 0.00 0.00 0.00 45 999.9
20260504174036 56 8 4.3 13.0 0.00 0.00 0.00 47 999.9
20260504173538 56 355 6.1 21.7 0.00 0.00 0.00 45 999.8
20260504173036 56 307 6.1 21.7 0.00 0.00 0.00 47 999.6
20260504172535 55 320 7.8 19.1 0.00 0.00 0.00 46 999.5
20260504172035 55 278 9.6 19.1 0.00 0.00 0.00 45 999.5
20260504171534 55 269 7.8 20.9 0.00 0.00 0.00 45 999.6
20260504171035 55 285 9.6 20.9 0.00 0.00 0.00 44 999.7
20260504170534 55 347 4.3 13.9 0.00 0.00 0.00 46 999.7
20260504151028 56 262 9.6 19.1 0.00 0.00 0.00 54 998.3
20260504150531 55 304 7.8 22.6 0.00 0.00 0.00 53 998.3
20260504141025 55 278 7.0 19.1 0.00 0.00 0.00 54 998.1
20260504140525 55 298 9.6 18.2 0.00 0.00 0.00 53 998.0
20260504130520 54 20 6.1 14.8 0.00 0.00 0.00 52 997.8
20260504110511 57 285 13.0 22.6 0.00 0.00 0.00 48 995.1
20260504100545 56 264 8.7 14.8 0.00 0.00 0.00 46 995.2
20260504081541 53 252 6.1 10.4 0.00 0.00 0.00 45 996.7
20260504081026 53 257 6.1 10.4 0.00 0.00 0.00 45 996.6
20260504080526 53 242 5.2 9.6 0.00 0.00 0.00 46 996.7
20260504050553 53 259 5.2 8.7 0.00 0.00 0.00 49 1000.4
20260504045550 53 233 5.2 7.8 0.00 0.00 0.00 49 1000.7
20260504045051 53 246 5.2 7.8 0.00 0.00 0.00 49 1000.8
20260504044549 53 245 4.3 7.0 0.00 0.00 0.00 49 1000.9
20260504044048 53 240 4.3 6.1 0.00 0.00 0.00 48 1000.9
20260504043548 53 240 4.3 6.1 0.00 0.00 0.00 48 1001.1
20260504043054 53 246 3.5 5.2 0.00 0.00 0.00 48 1001.3
20260504042548 54 238 3.5 5.2 0.00 0.00 0.00 48 1001.5
20260504042044 54 248 2.6 5.2 0.00 0.00 0.00 47 1001.5
20260504041544 54 243 2.6 3.5 0.00 0.00 0.00 47 1001.7
20260504041043 54 245 2.6 4.3 0.00 0.00 0.00 47 1001.7
20260504040542 54 256 2.6 4.3 0.00 0.00 0.00 47 1001.8
20260504040041 54 238 2.6 4.3 0.00 0.00 0.00 47 1002.0
20260504035540 54 243 1.7 4.3 0.00 0.00 0.00 47 1002.1
20260504035040 55 252 1.7 3.5 0.00 0.00 0.00 46 1002.2
20260504034539 55 246 1.7 3.5 0.00 0.00 0.00 45 1002.2
20260504034038 56 239 1.7 4.3 0.00 0.00 0.00 44 1002.4
20260504033537 56 267 1.7 4.3 0.00 0.00 0.00 43 1002.4
20260504033036 56 240 1.7 3.5 0.00 0.00 0.00 43 1002.5
20260504032536 56 233 1.7 3.5 0.00 0.00 0.00 42 1002.7
20260504032036 57 246 0.9 2.6 0.00 0.00 0.00 42 1002.8
20260504031535 57 239 0.9 2.6 0.00 0.00 0.00 41 1002.9
20260504031033 57 245 1.7 2.6 0.00 0.00 0.00 41 1003.0
20260504030533 57 259 0.9 2.6 0.00 0.00 0.00 41 1003.1
20260504030033 57 245 1.7 2.6 0.00 0.00 0.00 41 1003.2
20260504025533 57 240 0.9 2.6 0.00 0.00 0.00 40 1003.1
20260504025034 58 252 0.0 2.6 0.00 0.00 0.00 40 1003.1
20260504024535 58 253 0.9 2.6 0.00 0.00 0.00 40 1003.2
20260504024033 58 258 0.0 2.6 0.00 0.00 0.00 40 1003.2
20260504023531 58 275 0.0 2.6 0.00 0.00 0.00 39 1003.2
20260504023034 58 254 0.0 1.7 0.00 0.00 0.00 39 1003.2
20260504022533 59 249 0.9 1.7 0.00 0.00 0.00 39 1003.3
20260504022031 59 266 0.0 1.7 0.00 0.00 0.00 38 1003.2
20260504021530 59 262 0.0 0.9 0.00 0.00 0.00 38 1003.3
20260504021030 59 263 0.0 0.9 0.00 0.00 0.00 38 1003.3
20260504020529 59 261 0.0 1.7 0.00 0.00 0.00 38 1003.3
20260504020028 60 269 0.0 1.7 0.00 0.00 0.00 38 1003.3
20260504015529 60 277 0.0 1.7 0.00 0.00 0.00 37 1003.4
20260504015029 60 257 0.0 1.7 0.00 0.00 0.00 37 1003.4
20260504014537 60 252 0.9 1.7 0.00 0.00 0.00 37 1003.4
20260504014028 61 262 0.9 1.7 0.00 0.00 0.00 38 1003.5
20260504013526 61 278 0.9 1.7 0.00 0.00 0.00 40 1003.6
20260504013035 61 288 0.9 2.6 0.00 0.00 0.00 38 1003.6
20260504012526 62 280 0.9 3.5 0.00 0.00 0.00 43 1003.7
20260504012026 62 283 2.6 4.3 0.00 0.00 0.00 39 1003.6
20260504011526 63 283 2.6 6.1 0.00 0.00 0.00 38 1003.6
20260504011024 63 281 3.5 7.0 0.00 0.00 0.00 40 1003.7
20260504010524 64 290 5.2 8.7 0.00 0.00 0.00 35 1003.8
20260504010023 64 288 5.2 10.4 0.00 0.00 0.00 34 1003.8
20260504005523 65 290 7.0 10.4 0.00 0.00 0.00 32 1003.8
20260504005023 65 285 7.8 10.4 0.00 0.00 0.00 33 1003.9
20260504004527 66 271 7.0 12.2 0.00 0.00 0.00 33 1003.9
20260504004022 66 290 7.0 12.2 0.00 0.00 0.00 33 1003.9
20260504003522 66 284 8.7 12.2 0.00 0.00 0.00 31 1003.9
20260504003021 66 283 6.1 10.4 0.00 0.00 0.00 30 1004.0
20260504002523 66 287 7.0 11.3 0.00 0.00 0.00 29 1004.0
20260504002021 66 248 7.8 14.8 0.00 0.00 0.00 28 1004.1
20260504001521 66 287 7.0 13.9 0.00 0.00 0.00 30 1004.0
20260504001020 67 283 8.7 13.9 0.00 0.00 0.00 27 1004.0
20260504000519 67 328 6.1 13.9 0.00 0.00 0.00 28 1004.0
20260504000020 67 285 5.2 12.2 0.00 0.00 0.00 28 1004.1
20260503235521 67 294 5.2 12.2 0.00 0.00 0.00 30 1004.2
20260503235019 67 313 5.2 13.9 0.00 0.00 0.00 30 1004.3
20260503234521 67 281 8.7 14.8 0.00 0.00 0.00 30 1004.1
20260503234022 67 256 10.4 14.8 0.00 0.00 0.00 28 1004.2
20260503233519 67 274 6.1 12.2 0.00 0.00 0.00 28 1004.2
20260503233021 68 256 5.2 12.2 0.00 0.00 0.00 28 1004.2
20260503232519 68 266 6.1 12.2 0.00 0.00 0.00 27 1004.3
20260503232019 68 281 4.3 13.0 0.00 0.00 0.00 26 1004.5
20260503231519 68 311 4.3 13.0 0.00 0.00 0.00 26 1004.5
20260503231015 68 274 4.3 10.4 0.00 0.00 0.00 25 1004.4
20260503230518 68 351 4.3 10.4 0.00 0.00 0.00 25 1004.5
20260503230017 68 295 5.2 13.0 0.00 0.00 0.00 26 1004.3
20260503225513 68 323 4.3 13.0 0.00 0.00 0.00 26 1004.5
20260503225012 68 277 2.6 15.6 0.00 0.00 0.00 26 1004.6
20260503224511 68 267 7.0 15.6 0.00 0.00 0.00 26 1004.6
20260503224013 68 229 3.5 9.6 0.00 0.00 0.00 25 1004.8
20260503223510 68 315 3.5 8.7 0.00 0.00 0.00 25 1004.8
20260503223009 68 20 3.5 13.9 0.00 0.00 0.00 24 1004.9
20260503222510 68 330 4.3 11.3 0.00 0.00 0.00 24 1004.9
20260503222110 68 312 5.2 11.3 0.00 0.00 0.00 26 1004.8
20260503221509 68 266 4.3 13.0 0.00 0.00 0.00 27 1004.9